STARLINK-11305, 61247

Orbit data source: Space-Track

STARLINK-11305, 61247 is a payload satellite owned by SpaceX/Seattle (US) in LEO that was launched on Wed, 25 Sep 2024 UTC via an FALCON 9 launch vehicle from the Air Force Western Test Range (AFWTR). Payload-class satellites include a variety of spacecraft equipped with specific instruments for various scientific and technological missions. These include communications satellites like Starlink; space stations such as the ISS; scientific satellites like the Hubble; Earth observation satellites from companies like Planet Labs, Umbra, and HawkEye 360; GPS; miniature CubeSats for education and research; and military/defense satellites.

Loading next visibility...
Identifier
61247, 2024-175E
Orbit
LEO
Country
Flag of USUS
Related business
Manufacturer
SpaceX/Seattle
Mission
Operational Commercial Communications
Bus & Motor
STARLINK V2MD, Unknown motor
Mass
960 kg wet, ~910 kg dry
Launch date (UTC)
2024-09-25 (1 year ago)
Launch vehicle
FALCON 9
Launch site
Air Force Western Test Range (AFWTR)
Object type
Payload
Rocket body
Debris
Shape & HBR
Box + 2 Pan, 18.1 m
Radar Cross Section
36.964 m², Large (>1 m²)

Expand to show TLE details & history
Last TLE update: 21 hours ago

TLE from 21 hours ago
0 STARLINK-11305
1 61247U 24175E   25347.76421282 -.00005232  00000-0 -38453-4 0  9993
2 61247  53.1594 119.6485 0000858  52.4579 307.6517 15.69650875 69877
Epoch: 2025-12-13T18:20Z
TLE epoch observation values (Epoch: 2025-12-13T18:20:27.987Z)
Latitude
-0.00001°
Longitude
121.84508°
Altitude
360.458 km
Speed
7.694 km/s
True Right ascension
07h 58m 35s
True Declination
0° 00' 00"
Sunlit
Object was in full shadow at epoch
Visualization orbit readout
Latitude
Unknown
Longitude
Unknown
Altitude
Unknown
Speed
Unknown
Apparent Right ascension
Unknown
Apparent Declination
Unknown
Sunlit
N/A
Visualization observer readout
Local Sidereal Time
13:32:07
Azimuth
Unknown
Elevation
Unknown
Doppler factor
Unknown
Orbital elements
Apogee altitude
360.735 km
Perigee altitude
359.579 km
Semi-major axis
6,738.294 km
Eccentricity
0.00009
Inclination
53.1594°
RAAN
119.6485°
Arg. of periapsis
52.4579°
True anomaly
307.64392°
Mean anomaly
307.6517°
Eccentric anomaly
307.64781°
Mean motion
3.9239 °/min
Orbital period
91.75 mins
BSTAR
-0.000038453
Loading maneuver chart data...
Computing Atmospheric mass density...
Loading historical data...
Loading historical data...
Loading historical data...
Loading historical data...
Loading historical data...
Loading historical data...
Loading historical data...

Documentation

Showing up to 5 results
|